Home > Weather > Melhus > Past weeks

Flag for Norway Past Weather in Melhus, Norway — Yesterday and Last 2 Weeks

Now
63 °F

Sprinkles. Partly sunny.


Feels Like: 63 °F
Forecast: 51 / 74 °F
Wind: 2 mph from North

Location: Trondheim / Vaernes

Current Time: May 29, 2016 at 9:21:09 PM

Latest Report: May 29, 2016 at 8:50 PM


Visibility: N/A

Pressure: 30.18 "Hg

Humidity: 68%

Dew Point: 52 °F

Location of MelhusLocation

Past Weather in Melhus — Graph

°F

Melhus Temperature Yesterday

Maximum temperature yesterday: 66 °F (at 2:50 PM)
Minimum temperature yesterday: 52 °F (at 1:50 AM)
Average temperature yesterday: 61 °F

High & Low Weather Summary for the Past Weeks

 TemperatureHumidityPressure
High72 °F (May 27, 5:50 PM)100% (May 23, 9:20 AM)30.36 "Hg (May 23, 9:20 AM)
Low37 °F (May 19, 11:50 PM)29% (May 27, 4:50 PM)29.59 "Hg (May 20, 6:50 PM)
Average51 °F69%29.98 "Hg
* Reported May 14 7:20 PM — May 29 7:50 PM, Melhus, Weather by CustomWeather, © 2016

Note: Actual official high and low records may vary slightly from our data, if they occured in-between our weather recording intervals... More about our weather records

Advertising

Melhus Weather History for the Previous 24 Hours

Scroll right to see more
 ConditionsComfort  
Time TempWeatherWind HumidityBarometerVisibility
7:50 PM
Sun, May 29
63 °FSunny.1 mph68%30.18 "Hg10 mi
7:20 PM63 °FSunny.1 mph68%30.18 "Hg10 mi
6:50 PM63 °FSunny.2 mph68%30.21 "Hg10 mi
6:20 PM63 °FPassing clouds.3 mph68%30.21 "HgN/A
5:50 PM63 °FSunny.2 mph73%30.21 "Hg10 mi
5:20 PM64 °FSunny.2 mph64%30.21 "Hg10 mi
4:50 PM63 °FSunny.2 mph68%30.21 "Hg10 mi
4:20 PM63 °FSprinkles. Clear.3 mph68%30.21 "HgN/A
3:50 PM63 °FBroken clouds.5 mph59%30.21 "HgN/A
3:20 PM64 °FBroken clouds.8 mph56%30.21 "HgN/A
2:50 PM64 °FSunny.9 mph60%30.24 "Hg10 mi
2:20 PM64 °FSunny.7 mph60%30.24 "Hg10 mi
1:50 PM63 °FSunny.12 mph64%30.24 "Hg10 mi
1:20 PM63 °FSunny.10 mph59%30.24 "Hg10 mi
12:50 PM63 °FPartly sunny.7 mph59%30.24 "HgN/A
12:20 PM63 °FSunny.9 mph59%30.24 "Hg10 mi
11:50 AM63 °FSunny.8 mph59%30.24 "Hg10 mi
11:20 AM63 °FSunny.10 mph59%30.24 "Hg10 mi
10:50 AM63 °FSunny.13 mph59%30.24 "Hg10 mi
10:20 AM61 °FSunny.15 mph63%30.24 "Hg10 mi
9:50 AM61 °FSunny.16 mph63%30.24 "Hg10 mi
9:20 AM61 °FSunny.14 mph63%30.24 "Hg10 mi
8:50 AM61 °FSunny.10 mph59%30.24 "Hg10 mi
8:20 AM59 °FSunny.12 mph63%30.24 "Hg10 mi
7:50 AM59 °FSunny.12 mph63%30.24 "Hg10 mi
7:20 AM59 °FSunny.12 mph63%30.24 "Hg10 mi
6:50 AM59 °FPassing clouds.8 mph59%30.24 "HgN/A
6:20 AM57 °FSunny.10 mph63%30.24 "Hg10 mi
5:50 AM55 °FPassing clouds.8 mph67%30.24 "HgN/A
3:50 AM54 °FClear.8 mph67%30.24 "Hg10 mi
2:50 AM54 °FClear.12 mph67%30.24 "Hg10 mi
1:50 AM55 °FClear.13 mph63%30.24 "Hg10 mi
12:50 AM57 °FRefreshingly cool.13 mph59%30.21 "HgN/A
11:50 PM
Sat, May 28
57 °FSunny.10 mph59%30.21 "Hg10 mi
11:20 PM59 °FPassing clouds.9 mph55%30.21 "HgN/A
10:50 PM59 °FSunny.10 mph55%30.21 "Hg10 mi
10:20 PM61 °FPassing clouds.8 mph52%30.21 "HgN/A
9:50 PM61 °FPassing clouds.10 mph52%30.21 "HgN/A
9:20 PM63 °FSunny.14 mph45%30.18 "Hg10 mi
Weather by CustomWeather, © 2016

See weather overviewHow to use our weather pages